Regional Weather Roundup
Issued by NWS Binghamton, NY

Home | Current Version | Previous Version | Text Only | Print | Product List | Glossary On
Versions: 1 2 3 4 5 6 7 8 9 10 11 12 13 14 15 16 17 18 19 20 21 22 23 24 25 26 27 28 29 30 31 32 33 34 35 36 37 38 39 40 41 42 43 44 45 46 47 48 49 50
533
ASUS41 KBGM 180910
RWRBGM

REGIONAL WEATHER ROUNDUP
NATIONAL WEATHER SERVICE BINGHAMTON NY
500 AM EDT THU JUL 18 2019

Note: "fair" indicates few or no clouds below 12,000 feet with no
significant weather and/or obstructions to visibility.

* = Station(s) that does not report precipitation, such as rain,
snow, etc, also no thunder or fog.

NYZ009-015>018-022>025-036-037-044>046-055>057-062-181000
...Central New York...

CITY           SKY/WX    TMP DP  RH WIND       PRES   REMARKS
Binghamton     FOG       68  67  96 NE3       29.94R VSB 1
Cortland       CLOUDY    64  64 100 E3        29.95R
Dansville      CLOUDY    70  69  97 CALM      29.94R FOG
Elmira         CLOUDY    72  71  97 CALM      29.92R
Endicott       CLOUDY    70  70 100 CALM      29.91R
Ithaca         CLOUDY    69  69 100 CALM      29.95R
Hamilton       CLOUDY    64  64 100 CALM      29.95R VSB 1/4
Hornell        CLOUDY    68  68 100 CALM      29.98R
Monticello     CLOUDY    69  68  96 CALM      29.96R
Oneonta        CLEAR     66  66 100 CALM      29.97R
Penn Yan       CLOUDY    69  67  93 CALM      29.94R
Rome           FAIR      64  63  96 CALM      29.94R
Seneca Falls   FOG       66  66 100 NE6       29.93S VSB 1
Sidney         CLOUDY    68  68 100 CALM      29.93R FOG
Skaneateles    FOG       66  66 100 CALM      29.95R VSB<1/4
Syracuse       FOG       67  66  97 CALM      29.93R VSB 1/2
$$

PAZ038>040-043-044-047-048-072-181000
...Northeast Pennsylvania...

CITY           SKY/WX    TMP DP  RH WIND       PRES   REMARKS
Hazleton         N/A    N/A N/A N/A MISG        N/A
Scranton       CLOUDY    73  70  90 E3        29.91R
Towanda          N/A     72  72 100 CALM      29.92S
$$
&&
KEY
WCI = Wind Chill Index
VSB = Visibility
HX  = Heat Index
$$




USA.gov is the U.S. government's official web portal to all federal, state and local government web resources and services.